This is the latest recevied weather packets stored in our database for station/object F4NFR-13. If no packets are shown the sender has not sent any weather packets the latest 1 day(s).
| Time | Temp. | Humidity | Pressure | Rain* | Wind** | Luminosity | Snow |
|---|---|---|---|---|---|---|---|
| 1777966008 | 11.11° C | 80% | 1013.4 hPa | 0 mm | 2.68 m/s, 74° | 154 W/m² | - |
| 1777965705 | 11.11° C | 80% | 1013.4 hPa | 0 mm | 4.02 m/s, 42° | 161 W/m² | - |
| 1777965403 | 11.11° C | 81% | 1013.4 hPa | 0 mm | 2.68 m/s, 83° | 239 W/m² | - |
| 1777964798 | 11.11° C | 81% | 1013.4 hPa | 0 mm | 4.02 m/s, 14° | 258 W/m² | - |
| 1777964496 | 11.11° C | 83% | 1013.4 hPa | 0 mm | 5.36 m/s, 33° | 262 W/m² | - |
| 1777964194 | 10° C | 86% | 1013.4 hPa | 0 mm | 5.36 m/s, 18° | 156 W/m² | - |
| 1777963891 | 10° C | 87% | 1013.4 hPa | 0 mm | 3.13 m/s, 29° | 98 W/m² | - |
| 1777963589 | 10° C | 87% | 1013.4 hPa | 0 mm | 2.68 m/s, 55° | 71 W/m² | - |
| 1777963287 | 10° C | 88% | 1013.4 hPa | 0 mm | 4.92 m/s, 61° | 70 W/m² | - |
| 1777962985 | 10° C | 89% | 1013.4 hPa | 0 mm | 2.68 m/s, 80° | 49 W/m² | - |
| 1777962682 | 10° C | 89% | 1013.4 hPa | 0 mm | 3.13 m/s, 31° | 47 W/m² | - |
| 1777962380 | 10° C | 89% | 1013.4 hPa | 0 mm | 5.36 m/s, 72° | 44 W/m² | - |
| 1777962078 | 10° C | 88% | 1013.4 hPa | 0 mm | 6.71 m/s, 52° | 44 W/m² | - |
| 1777961776 | 10° C | 89% | 1013.4 hPa | 0 mm | 3.13 m/s, 54° | 46 W/m² | - |
| 1777961473 | 10° C | 89% | 1013.4 hPa | 0 mm | 2.68 m/s, 11° | 45 W/m² | - |
| 1777961171 | 10° C | 89% | 1013.4 hPa | 0 mm | 4.92 m/s, 44° | 36 W/m² | - |
| 1777960869 | 10° C | 89% | 1013.4 hPa | 0 mm | 3.58 m/s, 32° | 35 W/m² | - |
| 1777960566 | 10° C | 89% | 1013.4 hPa | 0 mm | 2.68 m/s, 59° | 37 W/m² | - |
| 1777959961 | 10° C | 89% | 1013.4 hPa | 0 mm | 4.02 m/s, 58° | 35 W/m² | - |
| 1777959658 | 10° C | 89% | 1013.4 hPa | 0 mm | 2.68 m/s, 12° | 29 W/m² | - |
| 1777959356 | 10° C | 89% | 1013.4 hPa | 0 mm | 3.13 m/s, 50° | 26 W/m² | - |
| 1777959054 | 10° C | 89% | 1013.4 hPa | 0 mm | 2.68 m/s, 49° | 26 W/m² | - |
| 1777958751 | 10° C | 89% | 1013.4 hPa | 0 mm | 3.13 m/s, 59° | 27 W/m² | - |
| 1777958449 | 10° C | 89% | 1013.4 hPa | 0 mm | 5.36 m/s, 0° | 27 W/m² | - |
| 1777958147 | 10° C | 90% | 1013.4 hPa | 0 mm | 4.92 m/s, 66° | 26 W/m² | - |
* Rain latest hour (hover to see other rain measurements)
** Current wind speed in m/s (hover to see current wind gust speed)